Accueil
METAR-TAF:

METAR-TAF

Aéroports :

Shonai, Japon

latitude: 38-49N, longitude: 139-47E, altitude: 22 m

Observation

Le bulletin a été fait il y a 29 minutes, à 04:00 UTC
Vent 17 kt de ouest/sud-ouest
Température 13°C
Humidité 35%
Pression 1019 hPa
Visibilité 10 km ou plus
Quelques nuages à une hauteur de 4000 ft

METAR: RJSY 030400Z 24017KT 9999 FEW040 13/M02 Q1019

Heure: 13:29 (04:29 UTC)


TAF: absent

Observations et prévisions météorologiques de plus de 4000 aéroports (messages METAR et TAF).

Les stations disponibles sont représentées par des disques jaunes et rouges sur la carte.

Passer la souris dessus pour voir le nom de la station.

Cliquer dessus pour voir les observations et prévisions météorologiques.

Pour changer de carte: cliquez sur les boutons verts avec une croix noire pour zoomer, sur le bouton vert avec un tiret pour effectuer un zoom arrière, ou sur les flèches vertes pour les cartes adjacentes.


METAR-TAF: